| time (UTC) | temp C | wind direction | speed KPH | gust KPH | rain 1hr cm | rain 24hr cm | rain mn cm | humidity % | barometer mb |
| 20260510103534 | 13 | 71 | 20.9 | 41.8 | 0.00 | 0.00 | 0.00 | 1 | 1015.7 |
| 20260510102523 | 13 | 45 | 22.5 | 41.8 | 0.00 | 0.00 | 0.00 | 1 | 1015.7 |
| 20260510100332 | 13 | 5 | 20.9 | 38.6 | 0.00 | 0.00 | 0.00 | 1 | 1015.7 |
| 20260510095300 | 13 | 65 | 20.9 | 41.8 | 0.00 | 0.00 | 0.00 | 1 | 1015.7 |
| 20260510094246 | 13 | 74 | 20.9 | 41.8 | 0.00 | 0.00 | 0.00 | 1 | 1015.7 |
| 20260510092156 | 12 | 30 | 20.9 | 35.4 | 0.00 | 0.00 | 0.00 | 1 | 1016.0 |
| 20260510091207 | 12 | 55 | 20.9 | 37.0 | 0.00 | 0.00 | 0.00 | 1 | 1016.1 |
| 20260510085017 | 12 | 46 | 20.9 | 35.4 | 0.00 | 0.00 | 0.00 | 1 | 1015.9 |
| 20260510084024 | 12 | 20 | 19.3 | 38.6 | 0.00 | 0.00 | 0.00 | 1 | 1015.9 |
| 20260510083037 | 12 | 36 | 19.3 | 38.6 | 0.00 | 0.00 | 0.00 | 1 | 1015.8 |
| 20260510082054 | 12 | 40 | 17.7 | 38.6 | 0.00 | 0.00 | 0.00 | 1 | 1015.9 |
| 20260510081045 | 12 | 17 | 19.3 | 38.6 | 0.00 | 0.00 | 0.00 | 1 | 1015.9 |
| 20260510080016 | 12 | 68 | 16.1 | 32.2 | 0.00 | 0.00 | 0.00 | 1 | 1015.9 |
| 20260510073849 | 12 | 32 | 16.1 | 29.0 | 0.00 | 0.00 | 0.00 | 1 | 1016.1 |
| 20260510072817 | 12 | 84 | 14.5 | 25.7 | 0.00 | 0.00 | 0.00 | 1 | 1016.0 |
| 20260510070643 | 12 | 80 | 14.5 | 30.6 | 0.00 | 0.00 | 0.00 | 1 | 1016.2 |
| 20260510064550 | 12 | 90 | 12.9 | 29.0 | 0.00 | 0.00 | 0.00 | 1 | 1016.1 |
| 20260510063545 | 12 | 53 | 14.5 | 30.6 | 0.00 | 0.00 | 0.00 | 1 | 1016.0 |
| 20260510062533 | 12 | 40 | 17.7 | 33.8 | 0.00 | 0.00 | 0.00 | 1 | 1016.0 |
| 20260510061528 | 12 | 51 | 16.1 | 33.8 | 0.00 | 0.00 | 0.00 | 1 | 1016.1 |
| 20260510060524 | 12 | 32 | 14.5 | 32.2 | 0.00 | 0.00 | 0.00 | 1 | 1016.0 |
| 20260510055504 | 12 | 44 | 14.5 | 30.6 | 0.00 | 0.00 | 0.00 | 1 | 1016.0 |
| 20260510054439 | 11 | 69 | 14.5 | 30.6 | 0.00 | 0.00 | 0.00 | 1 | 1016.0 |
| 20260510053417 | 11 | 34 | 17.7 | 33.8 | 0.00 | 0.00 | 0.00 | 1 | 1016.1 |
| 20260510052351 | 11 | 5 | 16.1 | 33.8 | 0.00 | 0.00 | 0.00 | 1 | 1016.1 |
| 20260510051338 | 11 | 5 | 17.7 | 32.2 | 0.00 | 0.00 | 0.00 | 1 | 1016.2 |
| 20260510050319 | 11 | 57 | 17.7 | 30.6 | 0.00 | 0.00 | 0.00 | 1 | 1016.2 |
| 20260510045307 | 11 | 11 | 16.1 | 29.0 | 0.00 | 0.00 | 0.00 | 1 | 1016.1 |
| 20260510044236 | 11 | 25 | 17.7 | 29.0 | 0.00 | 0.00 | 0.00 | 1 | 1016.1 |
| 20260510043244 | 11 | 36 | 14.5 | 29.0 | 0.00 | 0.00 | 0.00 | 1 | 1016.0 |
| 20260510042223 | 11 | 36 | 14.5 | 29.0 | 0.00 | 0.00 | 0.00 | 1 | 1016.1 |
| 20260510040045 | 12 | 32 | 17.7 | 32.2 | 0.00 | 0.00 | 0.00 | 1 | 1016.0 |
| 20260510035110 | 12 | 37 | 16.1 | 29.0 | 0.00 | 0.00 | 0.00 | 1 | 1016.0 |
| 20260510034059 | 12 | 39 | 16.1 | 30.6 | 0.00 | 0.00 | 0.00 | 1 | 1016.0 |
| 20260510033110 | 12 | 38 | 16.1 | 30.6 | 0.00 | 0.00 | 0.00 | 1 | 1016.0 |
| 20260510032043 | 12 | 40 | 14.5 | 27.4 | 0.00 | 0.00 | 0.00 | 1 | 1016.1 |
| 20260510031046 | 12 | 15 | 14.5 | 27.4 | 0.00 | 0.00 | 0.00 | 1 | 1016.1 |
| 20260510024952 | 12 | 55 | 12.9 | 29.0 | 0.00 | 0.00 | 0.00 | 1 | 1016.0 |
| 20260510022831 | 12 | 57 | 11.3 | 27.4 | 0.00 | 0.00 | 0.00 | 1 | 1016.0 |
| 20260510021817 | 12 | 48 | 11.3 | 27.4 | 0.00 | 0.00 | 0.00 | 1 | 1016.1 |
| 20260510015731 | 12 | 40 | 9.7 | 24.1 | 0.00 | 0.00 | 0.00 | 1 | 1016.2 |
| 20260510014739 | 12 | 68 | 12.9 | 24.1 | 0.00 | 0.00 | 0.00 | 1 | 1016.2 |
| 20260510013802 | 12 | 45 | 9.7 | 22.5 | 0.00 | 0.00 | 0.00 | 1 | 1016.3 |
| 20260510012821 | 12 | 63 | 8.0 | 20.9 | 0.00 | 0.00 | 0.00 | 1 | 1016.4 |
| 20260510005459 | 12 | 71 | 8.0 | 20.9 | 0.00 | 0.00 | 0.00 | 1 | 1016.3 |
| 20260510004436 | 12 | 62 | 9.7 | 22.5 | 0.00 | 0.00 | 0.00 | 1 | 1016.2 |
| 20260510003434 | 12 | 59 | 9.7 | 22.5 | 0.00 | 0.00 | 0.00 | 1 | 1016.3 |
| 20260510002445 | 12 | 55 | 8.0 | 17.7 | 0.00 | 0.00 | 0.00 | 1 | 1016.4 |
| 20260510001456 | 12 | 37 | 8.0 | 17.7 | 0.00 | 0.00 | 0.00 | 1 | 1016.3 |
| 20260510000444 | 12 | 71 | 8.0 | 20.9 | 0.00 | 0.00 | 0.00 | 1 | 1016.4 |
| 20260509235501 | 12 | 75 | 8.0 | 20.9 | 0.00 | 0.00 | 0.00 | 1 | 1016.6 |
| 20260509234510 | 12 | 79 | 8.0 | 19.3 | 0.00 | 0.00 | 0.00 | 1 | 1016.5 |
| 20260509233523 | 12 | 84 | 6.4 | 19.3 | 0.00 | 0.00 | 0.00 | 1 | 1016.6 |
| 20260509232540 | 12 | 61 | 6.4 | 17.7 | 0.00 | 0.00 | 0.00 | 1 | 1016.7 |
| 20260509231518 | 12 | 73 | 8.0 | 17.7 | 0.00 | 0.00 | 0.00 | 1 | 1016.8 |
| 20260509230502 | 12 | 65 | 6.4 | 17.7 | 0.00 | 0.00 | 0.00 | 1 | 1016.8 |
| 20260509224355 | 12 | 70 | 4.8 | 14.5 | 0.00 | 0.00 | 0.00 | 1 | 1016.7 |
| 20260509223353 | 12 | 74 | 6.4 | 17.7 | 0.00 | 0.00 | 0.00 | 1 | 1016.7 |
| 20260509222333 | 12 | 51 | 6.4 | 19.3 | 0.00 | 0.00 | 0.00 | 1 | 1016.6 |
| 20260509221321 | 12 | 80 | 6.4 | 19.3 | 0.00 | 0.00 | 0.00 | 1 | 1016.8 |
| 20260509220323 | 12 | 71 | 6.4 | 16.1 | 0.00 | 0.00 | 0.00 | 1 | 1016.7 |
| 20260509215248 | 12 | 59 | 4.8 | 16.1 | 0.00 | 0.00 | 0.00 | 1 | 1016.7 |
| 20260509214258 | 12 | 63 | 6.4 | 17.7 | 0.00 | 0.00 | 0.00 | 1 | 1016.7 |
| 20260509213236 | 12 | 53 | 6.4 | 17.7 | 0.00 | 0.00 | 0.00 | 1 | 1016.8 |
| 20260509211111 | 12 | 64 | 6.4 | 14.5 | 0.00 | 0.00 | 0.00 | 1 | 1016.7 |
| 20260509210037 | 12 | 70 | 6.4 | 16.1 | 0.00 | 0.00 | 0.00 | 1 | 1016.6 |
| 20260509205006 | 12 | 61 | 6.4 | 17.7 | 0.00 | 0.00 | 0.00 | 1 | 1016.4 |
| 20260509203935 | 12 | 62 | 6.4 | 17.7 | 0.00 | 0.00 | 0.00 | 1 | 1016.5 |
| 20260509202946 | 13 | 53 | 6.4 | 17.7 | 0.00 | 0.00 | 0.00 | 1 | 1016.6 |
| 20260509200819 | 13 | 57 | 4.8 | 17.7 | 0.00 | 0.00 | 0.00 | 1 | 1016.4 |
| 20260509195839 | 13 | 71 | 6.4 | 17.7 | 0.00 | 0.00 | 0.00 | 1 | 1016.3 |
| 20260509194858 | 13 | 56 | 8.0 | 16.1 | 0.00 | 0.00 | 0.00 | 1 | 1016.1 |
| 20260509193920 | 13 | 72 | 6.4 | 16.1 | 0.00 | 0.00 | 0.00 | 1 | 1016.1 |
| 20260509192914 | 13 | 58 | 6.4 | 14.5 | 0.00 | 0.00 | 0.00 | 3 | 1016.1 |
| 20260509191906 | 14 | 99 | 6.4 | 16.1 | 0.00 | 0.00 | 0.00 | 5 | 1016.1 |
| 20260509190929 | 14 | 33 | 8.0 | 17.7 | 0.00 | 0.00 | 0.00 | 12 | 1016.0 |
| 20260509185858 | 15 | 46 | 6.4 | 17.7 | 0.00 | 0.00 | 0.00 | 29 | 1015.9 |
| 20260509184829 | 15 | 73 | 6.4 | 16.1 | 0.00 | 0.00 | 0.00 | 42 | 1016.0 |
| 20260509183819 | 15 | 51 | 8.0 | 17.7 | 0.00 | 0.00 | 0.00 | 47 | 1016.0 |
| 20260509182825 | 15 | 79 | 8.0 | 19.3 | 0.00 | 0.00 | 0.00 | 49 | 1015.9 |
| 20260509181759 | 15 | 69 | 9.7 | 19.3 | 0.00 | 0.00 | 0.00 | 50 | 1015.8 |
| 20260509180735 | 15 | 49 | 9.7 | 20.9 | 0.00 | 0.00 | 0.00 | 50 | 1015.8 |
| 20260509174537 | 15 | 77 | 9.7 | 22.5 | 0.00 | 0.00 | 0.00 | 49 | 1015.7 |
| 20260509173523 | 15 | 40 | 9.7 | 22.5 | 0.00 | 0.00 | 0.00 | 49 | 1015.7 |
| 20260509172524 | 15 | 92 | 11.3 | 25.7 | 0.00 | 0.00 | 0.00 | 50 | 1015.7 |
| 20260509170402 | 16 | 47 | 11.3 | 27.4 | 0.00 | 0.00 | 0.00 | 49 | 1015.9 |
| 20260509165331 | 16 | 60 | 9.7 | 24.1 | 0.00 | 0.00 | 0.00 | 47 | 1016.0 |
| 20260509164352 | 16 | 73 | 11.3 | 24.1 | 0.00 | 0.00 | 0.00 | 46 | 1016.0 |
| 20260509163402 | 16 | 101 | 12.9 | 22.5 | 0.00 | 0.00 | 0.00 | 47 | 1016.1 |
| 20260509162413 | 16 | 71 | 11.3 | 22.5 | 0.00 | 0.00 | 0.00 | 48 | 1016.0 |
| 20260509161408 | 17 | 44 | 11.3 | 24.1 | 0.00 | 0.00 | 0.00 | 49 | 1016.1 |
| 20260509160345 | 17 | 75 | 9.7 | 24.1 | 0.00 | 0.00 | 0.00 | 50 | 1016.1 |
| 20260509155333 | 17 | 107 | 11.3 | 24.1 | 0.00 | 0.00 | 0.00 | 50 | 1016.2 |
| 20260509154319 | 17 | 83 | 11.3 | 20.9 | 0.00 | 0.00 | 0.00 | 48 | 1016.4 |
| 20260509153335 | 17 | 99 | 11.3 | 24.1 | 0.00 | 0.00 | 0.00 | 48 | 1016.5 |
| 20260509152315 | 17 | 77 | 9.7 | 24.1 | 0.00 | 0.00 | 0.00 | 47 | 1016.6 |
| 20260509151322 | 17 | 85 | 9.7 | 25.7 | 0.00 | 0.00 | 0.00 | 47 | 1016.4 |
| 20260509150320 | 17 | 96 | 12.9 | 25.7 | 0.00 | 0.00 | 0.00 | 44 | 1016.3 |
| 20260509145315 | 17 | 78 | 11.3 | 24.1 | 0.00 | 0.00 | 0.00 | 44 | 1016.4 |
| 20260509144244 | 17 | 101 | 11.3 | 25.7 | 0.00 | 0.00 | 0.00 | 43 | 1016.3 |
| 20260509143209 | 17 | 80 | 12.9 | 25.7 | 0.00 | 0.00 | 0.00 | 42 | 1016.2 |
| 20260509142145 | 17 | 27 | 11.3 | 25.7 | 0.00 | 0.00 | 0.00 | 39 | 1016.1 |
| 20260509140039 | 17 | 106 | 12.9 | 27.4 | 0.00 | 0.00 | 0.00 | 35 | 1016.1 |
| 20260509132801 | 18 | 56 | 11.3 | 25.7 | 0.00 | 0.00 | 0.00 | 45 | 1016.3 |
| 20260509131801 | 18 | 55 | 11.3 | 24.1 | 0.00 | 0.00 | 0.00 | 44 | 1016.4 |
| 20260509130739 | 18 | 90 | 9.7 | 20.9 | 0.00 | 0.00 | 0.00 | 46 | 1016.4 |
| 20260509125737 | 18 | 83 | 11.3 | 24.1 | 0.00 | 0.00 | 0.00 | 44 | 1016.6 |
| 20260509124728 | 17 | 114 | 11.3 | 24.1 | 0.00 | 0.00 | 0.00 | 44 | 1016.6 |
| 20260509123710 | 17 | 38 | 14.5 | 24.1 | 0.00 | 0.00 | 0.00 | 45 | 1016.7 |
| 20260509122718 | 18 | 50 | 11.3 | 25.7 | 0.00 | 0.00 | 0.00 | 43 | 1016.7 |
| 20260509121658 | 18 | 84 | 11.3 | 25.7 | 0.00 | 0.00 | 0.00 | 43 | 1016.7 |
| 20260509120640 | 18 | 88 | 11.3 | 22.5 | 0.00 | 0.00 | 0.00 | 44 | 1016.7 |
| 20260509115652 | 18 | 49 | 11.3 | 22.5 | 0.00 | 0.00 | 0.00 | 44 | 1016.7 |
| 20260509114617 | 18 | 28 | 11.3 | 20.9 | 0.00 | 0.00 | 0.00 | 43 | 1016.8 |
| 20260509113631 | 18 | 80 | 11.3 | 25.7 | 0.00 | 0.00 | 0.00 | 41 | 1016.9 |
| 20260509112605 | 18 | 96 | 11.3 | 25.7 | 0.00 | 0.00 | 0.00 | 44 | 1017.1 |
| 20260509111537 | 18 | 61 | 9.7 | 20.9 | 0.00 | 0.00 | 0.00 | 43 | 1017.2 |
| 20260509110552 | 18 | 59 | 11.3 | 20.9 | 0.00 | 0.00 | 0.00 | 41 | 1017.2 |
| 20260509105558 | 18 | 75 | 9.7 | 20.9 | 0.00 | 0.00 | 0.00 | 40 | 1017.2 |
| 20260509104605 | 18 | 61 | 11.3 | 25.7 | 0.00 | 0.00 | 0.00 | 41 | 1017.3 |